Weather History for PAKT - January, 2013

Change the Weather History Date:

Friday, January 4, 2013

  Actual Average Record
Temperature  
Mean Temperature 42 °F -  
Max Temperature 44 °F 37 °F 50 °F (1958)
Min Temperature 39 °F 26 °F 0 °F (1965)
Degree Days  
Heating Degree Days 24    
Moisture  
Dew Point 38 °F    
Average Humidity 91    
Maximum Humidity 100    
Minimum Humidity 63    
Precipitation  
Precipitation 0.02 in - - ()
Sea Level Pressure  
Sea Level Pressure 30.00 in    
Wind  
Wind Speed 6 mph (SSE)    
Max Wind Speed 14 mph    
Max Gust Speed 21 mph    
Visibility 10 miles    
Events Rain    
Averages and records for this station are not official NWS values.
T = Trace of Precipitation, MM = Missing Value Source: NWS Daily Summary

Daily Weather History Graph

Daily Weather History Graph

Search for Another Location

Airport or City:

Trip Planner

Search our weather history database for the weather conditions in past years. The results will help you decide how hot, cold, wet, or windy it might be!

Date:

Astronomy

Jan. 04, 2013 Rise Set
Actual Time 8:12 AM AKST 3:31 PM AKST
Civil Twilight 7:27 AM AKST 4:16 PM AKST
Nautical Twilight 6:39 AM AKST 5:04 PM AKST
Astronomical Twilight 5:55 AM AKST 5:49 PM AKST
Moon No Moon Rise 10:36 AM AKST (1/4)
Length of Visible Light 8h 49m
Length of Day
7h 19m
Waning Gibbous, 53% of the Moon is Illuminated
Jan 4
Waning Gibbous
Jan 4
Last Quarter
Jan 11
New
Jan 18
First Quarter
Jan 26
Full

Hourly Weather History & Observations

Time (AKST) Temp. Windchill Dew Point Humidity Pressure Visibility Wind Dir Wind Speed Gust Speed Precip Events Conditions
12:53 AM 39.9 °F 34.5 °F 39.0 °F 97% 29.89 in 10.0 mi SSE 8.1 mph - 0.01 in   Overcast
1:53 AM 39.9 °F 35.8 °F 39.0 °F 97% 29.92 in 10.0 mi SSE 5.8 mph - 0.00 in Rain Light Rain
2:22 AM 39.2 °F 37.0 °F 39.2 °F 100% 29.93 in 6.0 mi SSE 3.5 mph - 0.00 in Rain Light Rain
2:32 AM 39.2 °F 37.0 °F 39.2 °F 100% 29.93 in 10.0 mi South 3.5 mph - 0.01 in   Overcast
3:32 AM 39.2 °F 35.9 °F 39.2 °F 100% 29.96 in 9.0 mi SE 4.6 mph - 0.00 in   Overcast
3:53 AM 39.0 °F 36.8 °F 39.0 °F 100% 29.96 in 8.0 mi SSE 3.5 mph - 0.00 in   Overcast
4:02 AM 39.2 °F 35.9 °F 39.2 °F 100% 29.97 in 10.0 mi SSE 4.6 mph - N/A   Overcast
4:53 AM 39.0 °F 36.8 °F 39.0 °F 100% 29.99 in 10.0 mi SSE 3.5 mph - N/A   Overcast
5:11 AM 39.2 °F 37.0 °F 39.2 °F 100% 29.99 in 10.0 mi SSE 3.5 mph - N/A   Overcast
5:35 AM 39.2 °F - 39.2 °F 100% 29.99 in 10.0 mi Calm Calm - N/A   Overcast
5:53 AM 39.0 °F 36.8 °F 39.0 °F 100% 30.01 in 10.0 mi SSW 3.5 mph - N/A   Overcast
6:05 AM 39.2 °F 37.0 °F 39.2 °F 100% 30.00 in 10.0 mi South 3.5 mph - N/A   Overcast
6:17 AM 39.2 °F 37.0 °F 39.2 °F 100% 30.00 in 10.0 mi SSE 3.5 mph - N/A   Overcast
6:53 AM 39.0 °F 35.7 °F 39.0 °F 100% 30.02 in 10.0 mi SSE 4.6 mph - N/A   Overcast
7:53 AM 39.0 °F 34.8 °F 39.0 °F 100% 30.05 in 10.0 mi SE 5.8 mph - N/A   Overcast
8:53 AM 39.0 °F 35.7 °F 39.0 °F 100% 30.09 in 8.0 mi SSE 4.6 mph - 0.00 in Rain Light Rain
9:53 AM 39.9 °F 35.8 °F 39.9 °F 100% 30.10 in 10.0 mi SE 5.8 mph - 0.00 in   Overcast
10:53 AM 41.0 °F 36.4 °F 41.0 °F 100% 30.10 in 10.0 mi SSE 6.9 mph - 0.00 in   Overcast
11:53 AM 41.0 °F 36.4 °F 41.0 °F 100% 30.09 in 10.0 mi South 6.9 mph - N/A   Overcast
12:53 PM 42.1 °F 35.7 °F 39.0 °F 89% 30.08 in 10.0 mi SE 11.5 mph - 0.01 in Rain Light Rain
1:53 PM 42.1 °F 35.7 °F 37.9 °F 85% 30.08 in 10.0 mi SSE 11.5 mph 20.7 mph 0.00 in   Overcast
2:53 PM 42.1 °F 36.6 °F 37.9 °F 85% 30.06 in 10.0 mi SSE 9.2 mph - 0.00 in   Overcast
3:53 PM 43.0 °F 36.8 °F 37.0 °F 80% 30.05 in 10.0 mi SSE 11.5 mph 20.7 mph N/A   Overcast
4:53 PM 41.0 °F 36.4 °F 37.9 °F 89% 30.04 in 10.0 mi South 6.9 mph - 0.00 in   Overcast
5:53 PM 42.1 °F 38.4 °F 37.0 °F 82% 30.02 in 10.0 mi South 5.8 mph - N/A   Overcast
6:53 PM 42.1 °F 39.2 °F 36.0 °F 79% 30.01 in 10.0 mi Variable 4.6 mph - N/A   Overcast
7:53 PM 41.0 °F 38.0 °F 35.1 °F 79% 29.99 in 10.0 mi South 4.6 mph - N/A   Overcast
8:53 PM 41.0 °F - 35.1 °F 79% 29.97 in 10.0 mi Calm Calm - N/A   Overcast
9:53 PM 43.0 °F 38.2 °F 33.1 °F 68% 29.94 in 10.0 mi South 8.1 mph 17.3 mph N/A   Overcast
10:53 PM 44.1 °F 40.1 °F 32.0 °F 63% 29.92 in 10.0 mi South 6.9 mph - N/A   Overcast
11:53 PM 44.1 °F 37.4 °F 32.0 °F 63% 29.92 in 10.0 mi SE 13.8 mph 19.6 mph 0.00 in   Overcast